Location: Bogis-Bossey
(46.3500°N, 6.1667°E)
Time: 20:19:43
(UTC+00:00)

USA 238 DEB - Pass Details

Date: 05 March 2024
Orbit: 926 x 1285 km, 63.4° (Epoch: 21 April)

Event Time Altitude Azimuth Distance (km) Brightness Sun altitude
Exits shadow 01:44:12 27° 63° (ENE) 1,845 5.3 -42.3°
Drops below altitude 10° 01:47:21 10° 48° (NE) 2,866 6.6 -41.9°
Sets 01:50:11 0° 42° (NE) 3,879 7.5 -41.6°
